GW1059 Weather Reports


Display with metric or nautical units.
time (UTC)temp
F
wind
direction
speed
MPH
gust
MPH
rain 1hr
in
rain 24hr
in
rain mn
in
humidity
%
barometer
mb
20260906174356 79 146 8.0 15.0 0.00 0.00 0.00 58 1020.4
20260906173851 79 133 8.0 17.0 0.00 0.00 0.00 59 1020.4
20260906173347 79 148 8.0 17.0 0.00 0.00 0.00 58 1020.4
20260906172846 79 179 6.0 15.0 0.00 0.00 0.00 58 1020.4
20260906172343 79 123 6.0 12.0 0.00 0.00 0.00 60 1020.4
20260906171837 79 138 8.0 16.0 0.00 0.00 0.00 59 1020.8
20260906171332 79 145 6.0 16.0 0.00 0.00 0.00 59 1020.4
20260906170828 79 145 5.0 12.0 0.00 0.00 0.00 57 1020.4
20260906170324 78 192 5.0 12.0 0.00 0.00 0.00 63 1020.4
20260906165820 79 147 4.0 12.0 0.00 0.00 0.00 61 1020.8
20260906165319 78 195 4.0 11.0 0.00 0.00 0.00 64 1020.8
20260906164814 78 149 6.0 13.0 0.00 0.00 0.00 65 1020.8
20260906164314 77 157 5.0 13.0 0.00 0.00 0.00 66 1020.8
20260906163810 77 94 4.0 10.0 0.00 0.00 0.00 69 1020.8
20260906163306 77 148 5.0 10.0 0.00 0.00 0.00 70 1020.8
20260906162803 76 90 5.0 10.0 0.00 0.00 0.00 71 1021.1
20260906162305 76 121 5.0 12.0 0.00 0.00 0.00 72 1020.8
20260906161757 76 159 6.0 12.0 0.00 0.00 0.00 72 1021.1
20260906161256 76 165 5.0 12.0 0.00 0.00 0.00 72 1021.1
20260906160755 76 103 5.0 11.0 0.00 0.00 0.00 75 1020.8
20260906160250 75 92 5.0 11.0 0.00 0.00 0.00 75 1021.1
20260906155747 75 128 5.0 11.0 0.00 0.00 0.00 76 1021.1
20260906155242 75 170 5.0 11.0 0.00 0.00 0.00 76 1021.1
20260906154738 74 163 6.0 12.0 0.00 0.00 0.00 78 1021.1
20260906154233 74 182 7.0 14.0 0.00 0.00 0.00 78 1021.1
20260906153731 73 148 7.0 14.0 0.00 0.00 0.00 79 1021.1
20260906153225 73 136 6.0 13.0 0.00 0.00 0.00 81 1020.8
20260906152720 73 182 7.0 13.0 0.00 0.00 0.00 80 1021.1
20260906152215 73 173 7.0 14.0 0.00 0.00 0.00 81 1021.1
20260906151709 73 155 7.0 14.0 0.00 0.00 0.00 81 1020.8
20260906151206 72 92 6.0 13.0 0.00 0.00 0.00 83 1021.1
20260906150701 72 196 6.0 13.0 0.00 0.00 0.00 83 1021.1
20260906150156 72 146 7.0 14.0 0.00 0.00 0.00 83 1021.1
20260906145654 71 165 7.0 14.0 0.00 0.00 0.00 83 1020.8
20260906145149 71 126 7.0 14.0 0.00 0.00 0.00 84 1020.8
20260906144648 71 152 7.0 14.0 0.00 0.00 0.00 84 1020.8
20260906144143 71 148 6.0 12.0 0.00 0.00 0.00 84 1020.8
20260906143643 71 111 5.0 8.0 0.00 0.00 0.00 85 1020.8
20260906143141 71 142 4.0 7.0 0.00 0.00 0.00 86 1021.1
20260906142640 70 165 4.0 9.0 0.00 0.00 0.00 87 1021.1
20260906142135 69 153 5.0 11.0 0.00 0.00 0.00 88 1020.8
20260906141634 69 148 5.0 11.0 0.00 0.00 0.00 88 1020.8
20260906141129 69 161 4.0 8.0 0.00 0.00 0.00 89 1020.8
20260906140628 69 169 5.0 9.0 0.00 0.00 0.00 92 1020.8
20260906140123 68 155 5.0 10.0 0.00 0.00 0.00 94 1020.8
20260906135620 68 142 5.0 10.0 0.00 0.00 0.00 93 1020.8
20260906135116 68 175 5.0 9.0 0.00 0.00 0.00 94 1020.8
20260906134612 68 164 6.0 10.0 0.00 0.00 0.00 94 1021.1
20260906134107 68 178 6.0 10.0 0.00 0.00 0.00 94 1020.8
20260906133603 68 151 6.0 13.0 0.00 0.00 0.00 94 1021.1
20260906133057 68 154 6.0 13.0 0.00 0.00 0.00 94 1020.8
20260906132552 68 157 4.0 11.0 0.00 0.00 0.00 94 1020.8
20260906132048 68 157 4.0 8.0 0.00 0.00 0.00 95 1020.8
20260906131543 68 138 4.0 6.0 0.00 0.00 0.00 96 1020.4
20260906131038 67 163 3.0 6.0 0.00 0.00 0.00 96 1020.4
20260906130538 67 157 3.0 6.0 0.00 0.00 0.00 97 1020.1
20260906130033 67 137 2.0 4.0 0.00 0.00 0.00 97 1020.1
20260906125530 66 104 1.0 3.0 0.00 0.00 0.00 97 1020.4
20260906125025 66 90 2.0 4.0 0.00 0.00 0.00 97 1020.4
20260906124520 66 79 2.0 6.0 0.00 0.00 0.00 97 1020.4
20260906124015 66 74 2.0 6.0 0.00 0.00 0.00 96 1020.4
20260906123514 66 65 2.0 5.0 0.00 0.00 0.00 96 1020.4
20260906123010 66 149 2.0 5.0 0.00 0.00 0.00 96 1020.1
20260906122503 66 155 2.0 3.0 0.00 0.00 0.00 96 1020.1
20260906122000 66 155 2.0 5.0 0.00 0.00 0.00 96 1020.1
20260906121456 66 156 3.0 7.0 0.00 0.00 0.00 96 1020.1
20260906120952 66 155 3.0 7.0 0.00 0.00 0.00 96 1020.1
20260906120447 66 141 2.0 4.0 0.00 0.00 0.00 96 1020.1
20260906115943 66 119 2.0 6.0 0.00 0.00 0.00 96 1020.1
20260906115439 66 121 2.0 6.0 0.00 0.00 0.00 96 1020.1
20260906114938 66 87 2.0 4.0 0.00 0.00 0.00 96 1020.1
20260906114433 66 107 2.0 3.0 0.00 0.00 0.00 96 1020.1
20260906113929 66 107 2.0 6.0 0.00 0.00 0.00 96 1020.1
20260906113427 66 107 3.0 6.0 0.00 0.00 0.00 96 1020.1
20260906112923 66 60 3.0 6.0 0.00 0.00 0.00 96 1020.1
20260906112418 66 101 2.0 6.0 0.00 0.00 0.00 96 1020.1
20260906111914 66 92 2.0 4.0 0.00 0.00 0.00 95 1019.8
20260906111413 66 84 2.0 4.0 0.00 0.00 0.00 95 1019.8
20260906110908 66 81 2.0 4.0 0.00 0.00 0.00 95 1019.8
20260906110403 66 80 2.0 5.0 0.00 0.00 0.00 96 1019.8
20260906105903 66 79 2.0 5.0 0.00 0.00 0.00 96 1020.1
20260906105358 66 78 2.0 4.0 0.00 0.00 0.00 96 1020.1
20260906104854 66 105 2.0 4.0 0.00 0.00 0.00 96 1020.1
20260906104353 66 105 2.0 3.0 0.00 0.00 0.00 96 1020.1
20260906103852 66 107 2.0 3.0 0.00 0.00 0.00 96 1019.8
20260906103350 66 109 2.0 4.0 0.00 0.00 0.00 96 1019.8
20260906102846 66 109 2.0 4.0 0.00 0.00 0.00 96 1019.8
20260906102345 66 117 2.0 4.0 0.00 0.00 0.00 95 1019.4
20260906101840 66 109 3.0 4.0 0.00 0.00 0.00 95 1019.4
20260906101335 66 109 3.0 4.0 0.00 0.00 0.00 95 1019.4
20260906100831 66 123 2.0 4.0 0.00 0.00 0.00 95 1019.4
20260906100330 66 123 1.0 3.0 0.00 0.00 0.00 95 1019.4
20260906095825 66 123 0.0 2.0 0.00 0.00 0.00 95 1019.4
20260906095321 67 123 0.0 1.0 0.00 0.00 0.00 94 1019.4
20260906094820 67 123 1.0 3.0 0.00 0.00 0.00 94 1019.4
20260906094315 67 123 1.0 3.0 0.00 0.00 0.00 94 1019.1
20260906093811 67 123 1.0 2.0 0.00 0.00 0.00 94 1019.1
20260906093306 67 123 1.0 3.0 0.00 0.00 0.00 94 1019.1
20260906092755 67 123 1.0 3.0 0.00 0.00 0.00 94 1019.4
20260906092250 67 123 1.0 2.0 0.00 0.00 0.00 94 1019.1
20260906091746 67 123 0.0 2.0 0.00 0.00 0.00 94 1019.4
20260906091242 67 123 1.0 2.0 0.00 0.00 0.00 94 1019.1
20260906090738 67 123 2.0 4.0 0.00 0.00 0.00 94 1019.1
20260906090237 67 123 2.0 4.0 0.00 0.00 0.00 94 1019.1
20260906085736 67 127 2.0 3.0 0.00 0.00 0.00 94 1019.1
20260906085236 67 128 3.0 7.0 0.00 0.00 0.00 94 1019.1
20260906084731 68 134 4.0 9.0 0.00 0.00 0.00 94 1018.7
20260906084231 68 146 4.0 9.0 0.00 0.00 0.00 94 1018.7
20260906083725 68 125 3.0 6.0 0.00 0.00 0.00 94 1018.7
20260906083221 68 132 2.0 5.0 0.00 0.00 0.00 93 1018.7
20260906082716 68 136 2.0 4.0 0.00 0.00 0.00 93 1019.1
20260906082211 68 135 2.0 4.0 0.00 0.00 0.00 93 1019.1
20260906081707 68 134 2.0 4.0 0.00 0.00 0.00 93 1019.1
20260906081202 68 133 2.0 4.0 0.00 0.00 0.00 93 1019.1
20260906080659 68 123 3.0 4.0 0.00 0.00 0.00 93 1019.1
20260906080154 68 114 2.0 4.0 0.00 0.00 0.00 93 1019.1
20260906075654 68 113 2.0 4.0 0.00 0.00 0.00 93 1019.1
20260906075149 68 112 3.0 6.0 0.00 0.00 0.00 93 1019.1
20260906074644 68 111 4.0 7.0 0.00 0.00 0.00 93 1019.4
20260906074143 68 111 4.0 8.0 0.00 0.00 0.00 93 1019.4
20260906073638 68 117 4.0 8.0 0.00 0.00 0.00 93 1019.1
20260906073134 68 115 3.0 6.0 0.00 0.00 0.00 93 1019.1
20260906072628 68 161 3.0 5.0 0.00 0.00 0.00 92 1019.1
20260906072124 69 148 3.0 5.0 0.00 0.00 0.00 92 1019.1
20260906071620 69 151 3.0 6.0 0.00 0.00 0.00 92 1019.4
20260906071115 69 151 3.0 6.0 0.00 0.00 0.00 92 1019.4
20260906070612 69 138 2.0 4.0 0.00 0.00 0.00 92 1019.4
20260906070107 69 106 2.0 4.0 0.00 0.00 0.00 91 1019.4
20260906065606 69 105 2.0 4.0 0.00 0.00 0.00 91 1019.4
20260906065102 69 104 2.0 4.0 0.00 0.00 0.00 92 1019.4
20260906064558 69 102 2.0 4.0 0.00 0.00 0.00 92 1019.8
20260906064052 69 106 2.0 4.0 0.00 0.00 0.00 92 1019.4
20260906063547 69 132 1.0 3.0 0.00 0.00 0.00 92 1019.4
20260906063043 69 140 1.0 3.0 0.00 0.00 0.00 91 1019.4
20260906062539 69 140 2.0 5.0 0.00 0.00 0.00 91 1019.4
20260906062032 69 140 2.0 5.0 0.00 0.00 0.00 91 1019.4
20260906061529 69 153 1.0 3.0 0.00 0.00 0.00 91 1019.4
20260906061028 69 153 1.0 2.0 0.00 0.00 0.00 91 1019.4
20260906060525 70 153 1.0 2.0 0.00 0.00 0.00 91 1019.4
20260906060022 70 153 1.0 3.0 0.00 0.00 0.00 90 1019.4
20260906055517 70 153 1.0 3.0 0.00 0.00 0.00 90 1019.4
20260906055012 70 153 1.0 2.0 0.00 0.00 0.00 90 1019.4
20260906054507 70 153 1.0 5.0 0.00 0.00 0.00 90 1019.4
20260906054002 70 153 2.0 5.0 0.00 0.00 0.00 89 1019.4
20260906053459 70 153 2.0 3.0 0.00 0.00 0.00 89 1019.8
20260906052954 70 153 2.0 3.0 0.00 0.00 0.00 89 1019.4
20260906052450 70 153 2.0 3.0 0.00 0.00 0.00 89 1019.4
20260906051947 70 153 2.0 3.0 0.00 0.00 0.00 89 1019.4
20260906051442 70 153 2.0 3.0 0.00 0.00 0.00 89 1019.4
20260906050937 71 153 3.0 7.0 0.00 0.00 0.00 89 1019.4
20260906050437 71 156 4.0 9.0 0.00 0.00 0.00 89 1019.4
20260906045936 71 152 4.0 9.0 0.00 0.00 0.00 89 1019.1
20260906045435 71 161 3.0 6.0 0.00 0.00 0.00 89 1019.1
20260906044931 71 157 3.0 6.0 0.00 0.00 0.00 89 1019.1
20260906044426 70 155 2.0 5.0 0.00 0.00 0.00 89 1019.4
20260906043921 70 155 1.0 3.0 0.00 0.00 0.00 89 1019.1
20260906043417 70 155 2.0 5.0 0.00 0.00 0.00 89 1019.1
20260906042913 70 156 2.0 5.0 0.00 0.00 0.00 89 1019.1
20260906042411 70 156 2.0 5.0 0.00 0.00 0.00 89 1019.1
20260906041907 70 155 2.0 3.0 0.00 0.00 0.00 89 1019.1
20260906041403 71 155 2.0 5.0 0.00 0.00 0.00 89 1019.1
20260906040857 71 155 3.0 6.0 0.00 0.00 0.00 89 1019.1
20260906040352 70 156 3.0 6.0 0.00 0.00 0.00 89 1019.1
20260906035847 70 157 3.0 6.0 0.00 0.00 0.00 89 1019.1
20260906035343 70 157 4.0 7.0 0.00 0.00 0.00 89 1018.7
20260906034838 71 157 4.0 7.0 0.00 0.00 0.00 89 1018.7
20260906034333 71 158 4.0 6.0 0.00 0.00 0.00 89 1018.7
20260906033829 71 160 3.0 5.0 0.00 0.00 0.00 89 1018.7
20260906033328 71 160 1.0 4.0 0.00 0.00 0.00 88 1018.7
20260906032824 71 160 1.0 4.0 0.00 0.00 0.00 88 1019.1
20260906032320 71 160 0.0 1.0 0.00 0.00 0.00 88 1019.1
20260906031815 71 160 0.0 2.0 0.00 0.00 0.00 88 1019.1
20260906031311 72 160 1.0 2.0 0.00 0.00 0.00 87 1019.1
20260906030810 72 160 1.0 2.0 0.00 0.00 0.00 87 1018.7
20260906030305 72 160 1.0 2.0 0.00 0.00 0.00 87 1018.7
20260906025805 72 160 1.0 2.0 0.00 0.00 0.00 87 1018.7
20260906025259 72 160 0.0 2.0 0.00 0.00 0.00 87 1018.7
20260906024758 72 160 1.0 2.0 0.00 0.00 0.00 86 1018.7
20260906024257 72 160 1.0 4.0 0.00 0.00 0.00 86 1018.4
20260906023753 72 160 1.0 4.0 0.00 0.00 0.00 86 1018.4
20260906023248 73 160 1.0 2.0 0.00 0.00 0.00 86 1018.1
20260906022744 73 160 1.0 2.0 0.00 0.00 0.00 86 1018.1
20260906022239 73 160 2.0 4.0 0.00 0.00 0.00 85 1018.1
20260906021736 73 160 2.0 4.0 0.00 0.00 0.00 85 1017.6
20260906021234 74 160 2.0 4.0 0.00 0.00 0.00 85 1018.1
20260906020729 74 160 2.0 4.0 0.00 0.00 0.00 84 1017.6
20260906020223 74 160 2.0 4.0 0.00 0.00 0.00 84 1017.6
20260906015723 74 160 1.0 4.0 0.00 0.00 0.00 83 1017.6
20260906015222 75 160 1.0 4.0 0.00 0.00 0.00 83 1017.3
20260906014716 75 160 2.0 4.0 0.00 0.00 0.00 82 1017.3
20260906014212 75 160 2.0 6.0 0.00 0.00 0.00 82 1016.9
20260906013703 75 159 3.0 6.0 0.00 0.00 0.00 82 1016.9
20260906013203 75 159 4.0 6.0 0.00 0.00 0.00 81 1016.9
20260906012658 76 160 3.0 6.0 0.00 0.00 0.00 81 1016.9
20260906012157 76 159 4.0 7.0 0.00 0.00 0.00 81 1016.6
20260906011654 76 102 4.0 7.0 0.00 0.00 0.00 80 1016.6
20260906011148 76 120 3.0 7.0 0.00 0.00 0.00 80 1016.6
20260906010643 77 63 3.0 6.0 0.00 0.00 0.00 79 1016.6
20260906010140 77 105 3.0 6.0 0.00 0.00 0.00 79 1016.6
20260906005639 77 85 3.0 7.0 0.00 0.00 0.00 78 1016.6
20260906005138 77 112 3.0 7.0 0.00 0.00 0.00 78 1016.6
20260906004638 77 115 3.0 11.0 0.00 0.00 0.00 77 1016.6
20260906004133 78 99 4.0 11.0 0.00 0.00 0.00 77 1016.6
20260906003628 78 96 3.0 7.0 0.00 0.00 0.00 77 1016.6
20260906003124 78 113 4.0 8.0 0.00 0.00 0.00 76 1016.6
20260906002618 78 73 5.0 8.0 0.00 0.00 0.00 76 1016.6
20260906002114 78 107 5.0 10.0 0.00 0.00 0.00 75 1016.6
20260906001609 79 90 5.0 10.0 0.00 0.00 0.00 75 1016.6
20260906001109 79 92 5.0 11.0 0.00 0.00 0.00 74 1016.6
20260906000605 79 57 6.0 11.0 0.00 0.00 0.00 74 1016.6
20260906000100 79 61 6.0 11.0 0.00 0.00 0.00 74 1016.3
20260905235559 80 112 6.0 11.0 0.00 0.00 0.00 74 1016.6
20260905235054 80 113 6.0 12.0 0.00 0.00 0.00 74 1016.3
20260905234549 80 111 5.0 12.0 0.00 0.00 0.00 73 1016.6
20260905234045 80 107 5.0 9.0 0.00 0.00 0.00 73 1016.3
20260905233544 81 118 5.0 10.0 0.00 0.00 0.00 73 1016.6
20260905233044 81 71 5.0 10.0 0.00 0.00 0.00 72 1016.6
20260905232540 81 117 4.0 9.0 0.00 0.00 0.00 72 1016.3
20260905232035 81 110 5.0 11.0 0.00 0.00 0.00 71 1016.6
20260905231530 81 86 6.0 11.0 0.00 0.00 0.00 71 1016.6
20260905231027 81 53 6.0 11.0 0.00 0.00 0.00 71 1016.3
20260905230526 82 101 5.0 10.0 0.00 0.00 0.00 70 1016.3
20260905230024 82 105 4.0 11.0 0.00 0.00 0.00 70 1016.6
20260905225519 82 40 5.0 11.0 0.00 0.00 0.00 70 1016.6
20260905225015 82 59 6.0 11.0 0.00 0.00 0.00 69 1016.6
20260905224509 82 69 5.0 11.0 0.00 0.00 0.00 70 1016.3
20260905224009 82 102 6.0 10.0 0.00 0.00 0.00 69 1016.6
20260905223507 82 46 4.0 10.0 0.00 0.00 0.00 67 1016.6
20260905223002 82 41 4.0 7.0 0.00 0.00 0.00 68 1016.6
20260905222502 82 87 4.0 7.0 0.00 0.00 0.00 69 1016.6
20260905221957 82 72 4.0 7.0 0.00 0.00 0.00 70 1016.9
20260905221454 82 115 3.0 7.0 0.00 0.00 0.00 70 1016.6
20260905220949 82 95 2.0 6.0 0.00 0.00 0.00 70 1016.9
20260905220445 81 32 2.0 6.0 0.00 0.00 0.00 73 1016.9
20260905215944 81 286 2.0 6.0 0.00 0.00 0.00 74 1016.9
20260905215440 81 267 2.0 6.0 0.00 0.00 0.00 74 1016.9
20260905214937 81 216 2.0 4.0 0.00 0.00 0.00 73 1016.9
20260905214432 81 92 2.0 5.0 0.00 0.00 0.00 73 1016.9
20260905213932 82 157 2.0 5.0 0.00 0.00 0.00 71 1016.9
20260905213428 82 200 2.0 5.0 0.00 0.00 0.00 72 1016.9
20260905212923 82 217 2.0 4.0 0.00 0.00 0.00 72 1016.9
20260905212418 82 307 1.0 4.0 0.00 0.00 0.00 72 1017.3
20260905211917 82 351 2.0 5.0 0.00 0.00 0.00 71 1017.3
20260905211413 82 5 2.0 6.0 0.00 0.00 0.00 70 1016.9
20260905210909 82 355 2.0 6.0 0.00 0.00 0.00 72 1016.9
20260905210409 82 292 2.0 4.0 0.00 0.00 0.00 73 1016.9
20260905205908 81 236 2.0 5.0 0.00 0.00 0.00 73 1017.3
20260905205403 80 262 3.0 6.0 0.00 0.00 0.00 75 1017.3
20260905204902 80 279 2.0 6.0 0.00 0.00 0.00 75 1017.3
20260905204358 80 283 2.0 4.0 0.00 0.00 0.00 75 1017.3
20260905203857 80 344 1.0 4.0 0.00 0.00 0.00 75 1017.3
20260905203353 80 267 1.0 4.0 0.00 0.00 0.00 75 1017.3
20260905202848 80 248 2.0 4.0 0.00 0.00 0.00 75 1017.6
20260905202343 80 248 2.0 4.0 0.00 0.00 0.00 76 1017.3
20260905201839 79 248 3.0 7.0 0.00 0.00 0.00 78 1017.6
20260905201334 79 265 5.0 8.0 0.00 0.00 0.00 78 1017.6
20260905200834 79 287 5.0 9.0 0.00 0.00 0.00 77 1017.6
20260905200331 80 268 3.0 9.0 0.00 0.00 0.00 76 1018.1
20260905195828 80 248 2.0 7.0 0.00 0.00 0.00 75 1017.6
20260905195323 80 234 3.0 6.0 0.00 0.00 0.00 75 1017.6
20260905194819 80 288 4.0 7.0 0.00 0.00 0.00 74 1017.6
20260905194319 80 290 3.0 7.0 0.00 0.00 0.00 74 1017.6
20260905193818 80 291 3.0 7.0 0.00 0.00 0.00 75 1017.6
20260905193313 80 236 3.0 7.0 0.00 0.00 0.00 76 1017.6
20260905192808 79 268 2.0 6.0 0.00 0.00 0.00 76 1017.6
20260905192306 79 269 2.0 6.0 0.00 0.00 0.00 77 1017.6
20260905191804 79 315 1.0 4.0 0.00 0.00 0.00 77 1017.6
20260905191302 79 128 2.0 4.0 0.00 0.00 0.00 78 1017.6
20260905190801 79 128 2.0 4.0 0.00 0.00 0.00 77 1017.6
20260905190301 79 115 2.0 4.0 0.00 0.00 0.00 78 1017.6
20260905185800 79 126 2.0 4.0 0.00 0.00 0.00 78 1017.3
20260905185254 78 70 3.0 7.0 0.00 0.00 0.00 78 1017.6
20260905184748 79 68 3.0 7.0 0.00 0.00 0.00 77 1018.1
20260905184247 79 24 2.0 5.0 0.00 0.00 0.00 77 1018.1
20260905183741 79 129 1.0 3.0 0.00 0.00 0.00 77 1017.6
20260905183237 78 13 2.0 5.0 0.00 0.00 0.00 77 1018.1
20260905182736 78 14 2.0 5.0 0.00 0.00 0.00 78 1017.6
20260905182236 78 115 2.0 6.0 0.00 0.00 0.00 77 1018.1
20260905181732 78 125 2.0 6.0 0.00 0.00 0.00 78 1018.1
20260905181230 78 338 2.0 4.0 0.00 0.00 0.00 79 1018.1
20260905180725 78 30 2.0 4.0 0.00 0.00 0.00 79 1018.1
20260905180221 77 355 2.0 5.0 0.00 0.00 0.00 80 1018.1
20260905175721 78 90 3.0 6.0 0.00 0.00 0.00 80 1018.1
20260905175215 78 72 2.0 6.0 0.00 0.00 0.00 81 1018.1